"Pseudo-MPEC" for P21Y3aL

Created 2024 Sep 25 10:22:22 UT using Find_Orb

Click here for an explanation of pseudo-MPECs

 
 Astrometry: 
     P21Y3aL* C2024 09 05.32604922 55 44.660+11 56 04.24   ~9P1M 22.13wXNEOCPF52
     P21Y3aL  C2024 09 05.33924422 55 43.686+11 56 28.68   ~9P1M 22.47wXNEOCPF52
     P21Y3aL  C2024 09 05.35244722 55 42.718+11 56 53.03   ~9P1M 22.19wXNEOCPF52

Station data:
(F52) Pan-STARRS 2, Haleakala  (N20.707382 W156.255910)  US/Hawaii.
   Observers J. Bulger, T. Dukes, T. Lowe, A. Schultz, M. Willman. Measurers
   K. Chambers, S. Chastel, T. de Boer, L. Denneau, J. Fairlamb, H.
   Flewelling, M. Huber, C.-C. Lin, E. Magnier, Y. Ramanjooloo, R. Wainscoat,
   R. Weryk. 1.8-m Ritchey-Chrétien + CCD.

Orbital elements:  P21Y3aL
   Perihelion 2024 Jul 24.53817 +/- 48.3 TT = 12:54:57 (JD 2460516.03817)
Epoch 2024 Sep  5.0 TT = JDT 2460558.5   Earth MOID: 0.2342      AutoNEOCP
M  11.85670529 +/- 19               (J2000 ecliptic)
n   0.27923207 +/- 0.253            Peri.  342.18971 +/- 70
a   2.31824416 +/- 1.4              Node   327.35604 +/- 55
e   0.4653080 +/- 0.255             Incl.   13.84857 +/- 7
P   3.52971                H 23.19  G  0.15   U 11.8  SR
q 1.23954646 +/- 0.342    Q 3.39694186 +/- 53.1
From 3 observations 2024 Sept. 5 (38.0 min); mean residual 0".03
Residuals in arcseconds: 
240905 F52  .03+  .01-    240905 F52  .06-  .02+    240905 F52  .03+  .01-    

Ephemerides (geocentric):
Date (UTC) HH   RA             Dec           delta  r     elong  mag " sig PA
---- --------  ------------   ------------  ------ ------ -----  --- --------
2024 09 25 10  22 41 26.384   +18 16 52.12  .43020 1.3983 152.4 23.1  61d  96
2024 09 25 11  22 41 25.689   +18 17 15.93  .43047 1.3985 152.4 23.1  61d  96
2024 09 25 12  22 41 24.999   +18 17 39.67  .43075 1.3987 152.3 23.1  61d  96
2024 09 25 13  22 41 24.314   +18 18 03.34  .43103 1.3989 152.3 23.1  61d  96
2024 09 25 14  22 41 23.634   +18 18 26.93  .43131 1.3991 152.3 23.1  61d  96
2024 09 25 15  22 41 22.959   +18 18 50.45  .43159 1.3992 152.3 23.1  61d  96
2024 09 25 16  22 41 22.288   +18 19 13.89  .43186 1.3994 152.2 23.1  61d  96
2024 09 25 17  22 41 21.622   +18 19 37.27  .43214 1.3996 152.2 23.1  61d  96
2024 09 25 18  22 41 20.961   +18 20 00.56  .43242 1.3998 152.2 23.1  61d  96
2024 09 25 19  22 41 20.305   +18 20 23.79  .43270 1.4000 152.2 23.1  61d  96
2024 09 25 20  22 41 19.654   +18 20 46.94  .43298 1.4002 152.1 23.1  61d  96
2024 09 25 21  22 41 19.007   +18 21 10.02  .43326 1.4004 152.1 23.1  61d  96
2024 09 25 22  22 41 18.366   +18 21 33.03  .43354 1.4006 152.1 23.1  61d  96
2024 09 25 23  22 41 17.729   +18 21 55.96  .43382 1.4008 152.1 23.1  61d  96
2024 09 26 00  22 41 17.097   +18 22 18.83  .43410 1.4010 152.1 23.1  61d  96
2024 09 26 01  22 41 16.470   +18 22 41.62  .43438 1.4011 152.0 23.1  61d  96
2024 09 26 02  22 41 15.848   +18 23 04.33  .43466 1.4013 152.0 23.1  61d  96
2024 09 26 03  22 41 15.230   +18 23 26.98  .43494 1.4015 152.0 23.1  61d  96
2024 09 26 04  22 41 14.618   +18 23 49.55  .43523 1.4017 152.0 23.1  61d  96
2024 09 26 05  22 41 14.010   +18 24 12.06  .43551 1.4019 151.9 23.1  61d  96
2024 09 26 06  22 41 13.407   +18 24 34.49  .43579 1.4021 151.9 23.1  61d  96
2024 09 26 07  22 41 12.809   +18 24 56.85  .43607 1.4023 151.9 23.1  61d  96
2024 09 26 08  22 41 12.216   +18 25 19.14  .43635 1.4025 151.9 23.1  61d  96
2024 09 26 09  22 41 11.627   +18 25 41.36  .43664 1.4027 151.8 23.1  61d  96
2024 09 26 10  22 41 11.044   +18 26 03.51  .43692 1.4029 151.8 23.1  61d  96
2024 09 26 11  22 41 10.465   +18 26 25.58  .43720 1.4031 151.8 23.1  61d  96
2024 09 26 12  22 41 09.891   +18 26 47.59  .43748 1.4032 151.8 23.1  61d  96
2024 09 26 13  22 41 09.322   +18 27 09.52  .43777 1.4034 151.7 23.1  61d  96
2024 09 26 14  22 41 08.758   +18 27 31.39  .43805 1.4036 151.7 23.1  61d  96
2024 09 26 15  22 41 08.198   +18 27 53.19  .43833 1.4038 151.7 23.1  61d  96
2024 09 26 16  22 41 07.644   +18 28 14.91  .43862 1.4040 151.7 23.1  61d  96
2024 09 26 17  22 41 07.094   +18 28 36.57  .43890 1.4042 151.6 23.1  61d  96
2024 09 26 18  22 41 06.549   +18 28 58.15  .43919 1.4044 151.6 23.1  61d  96
2024 09 26 19  22 41 06.009   +18 29 19.67  .43947 1.4046 151.6 23.1  61d  96
2024 09 26 20  22 41 05.474   +18 29 41.12  .43976 1.4048 151.6 23.1  61d  96
2024 09 26 21  22 41 04.944   +18 30 02.50  .44004 1.4050 151.5 23.1  61d  96
2024 09 26 22  22 41 04.418   +18 30 23.80  .44033 1.4052 151.5 23.1  61d  96
2024 09 26 23  22 41 03.898   +18 30 45.04  .44061 1.4054 151.5 23.1  61d  96
2024 09 27 00  22 41 03.382   +18 31 06.22  .44090 1.4056 151.5 23.1  61d  96
2024 09 27 01  22 41 02.871   +18 31 27.32  .44118 1.4057 151.4 23.2  61d  96
2024 09 27 02  22 41 02.365   +18 31 48.35  .44147 1.4059 151.4 23.2  61d  96
2024 09 27 03  22 41 01.864   +18 32 09.32  .44175 1.4061 151.4 23.2  61d  96
2024 09 27 04  22 41 01.367   +18 32 30.22  .44204 1.4063 151.4 23.2  61d  96
2024 09 27 05  22 41 00.876   +18 32 51.04  .44233 1.4065 151.3 23.2  61d  96
2024 09 27 06  22 41 00.389   +18 33 11.81  .44261 1.4067 151.3 23.2  61d  96
2024 09 27 07  22 40 59.907   +18 33 32.50  .44290 1.4069 151.3 23.2  61d  96
2024 09 27 08  22 40 59.430   +18 33 53.13  .44319 1.4071 151.3 23.2  61d  96
2024 09 27 09  22 40 58.958   +18 34 13.68  .44348 1.4073 151.2 23.2  61d  96